,Coso Junction,Coso Junction
,PM10_1HR,PM10_1HR
,UG/M3,UG/M3
Date,Value,Null Code
01-Aug-2021 00:00,11.8,
01-Aug-2021 01:00,11.8,
01-Aug-2021 02:00,11.8,
01-Aug-2021 03:00,13,
01-Aug-2021 04:00,9.9,
01-Aug-2021 05:00,12,
01-Aug-2021 06:00,12.6,
01-Aug-2021 07:00,10.2,
01-Aug-2021 08:00,13.6,
01-Aug-2021 09:00,13.7,
01-Aug-2021 10:00,13.9,
01-Aug-2021 11:00,13,
01-Aug-2021 12:00,12.9,
01-Aug-2021 13:00,15.9,
01-Aug-2021 14:00,13.3,
01-Aug-2021 15:00,12.5,
01-Aug-2021 16:00,16.2,
01-Aug-2021 17:00,17.4,
01-Aug-2021 18:00,24.4,
01-Aug-2021 19:00,13.5,
01-Aug-2021 20:00,17.7,
01-Aug-2021 21:00,13.3,
01-Aug-2021 22:00,12.3,
01-Aug-2021 23:00,14.3,
02-Aug-2021 00:00,13.7,
02-Aug-2021 01:00,13,
02-Aug-2021 02:00,14.2,
02-Aug-2021 03:00,14,
02-Aug-2021 04:00,22.4,
02-Aug-2021 05:00,16.1,
02-Aug-2021 06:00,15.6,
02-Aug-2021 07:00,13.4,
02-Aug-2021 08:00,14,
02-Aug-2021 09:00,15.1,
02-Aug-2021 10:00,18.1,
02-Aug-2021 11:00,14.9,
02-Aug-2021 12:00,15.8,
02-Aug-2021 13:00,14.2,
02-Aug-2021 14:00,23.6,
02-Aug-2021 15:00,16.5,
02-Aug-2021 16:00,15.4,
02-Aug-2021 17:00,14.8,
02-Aug-2021 18:00,5.6,
02-Aug-2021 19:00,5.6,
02-Aug-2021 20:00,21.2,
02-Aug-2021 21:00,17.9,
02-Aug-2021 22:00,19,
02-Aug-2021 23:00,18.5,
03-Aug-2021 00:00,16.6,
03-Aug-2021 01:00,15.9,
03-Aug-2021 02:00,16.3,
03-Aug-2021 03:00,17.8,
03-Aug-2021 04:00,18,
03-Aug-2021 05:00,16.7,
03-Aug-2021 06:00,18.7,
03-Aug-2021 07:00,15.6,
03-Aug-2021 08:00,19.4,
03-Aug-2021 09:00,13.3,
03-Aug-2021 10:00,16.5,
03-Aug-2021 11:00,12.9,
03-Aug-2021 12:00,16.6,
03-Aug-2021 13:00,8.8,
03-Aug-2021 14:00,20.2,
03-Aug-2021 15:00,14.5,
03-Aug-2021 16:00,13.9,
03-Aug-2021 17:00,16.3,
03-Aug-2021 18:00,13.1,
03-Aug-2021 19:00,17.7,
03-Aug-2021 20:00,21.6,
03-Aug-2021 21:00,20.9,
03-Aug-2021 22:00,18.5,
03-Aug-2021 23:00,18.4,
04-Aug-2021 00:00,16.2,
04-Aug-2021 01:00,14,
04-Aug-2021 02:00,19.2,
04-Aug-2021 03:00,12,
04-Aug-2021 04:00,12.7,
04-Aug-2021 05:00,23.6,
04-Aug-2021 06:00,18.6,
04-Aug-2021 07:00,20.3,
04-Aug-2021 08:00,16.6,
04-Aug-2021 09:00,16.6,
04-Aug-2021 10:00,20.3,
04-Aug-2021 11:00,19.7,
04-Aug-2021 12:00,13.7,
04-Aug-2021 13:00,19.4,
04-Aug-2021 14:00,22.6,
04-Aug-2021 15:00,19.3,
04-Aug-2021 16:00,26.3,
04-Aug-2021 17:00,28.6,
04-Aug-2021 18:00,20.6,
04-Aug-2021 19:00,18.1,
04-Aug-2021 20:00,23.1,
04-Aug-2021 21:00,14.7,
04-Aug-2021 22:00,12.3,
04-Aug-2021 23:00,13.3,
05-Aug-2021 00:00,12.7,
05-Aug-2021 01:00,13.2,
05-Aug-2021 02:00,14.4,
05-Aug-2021 03:00,12.7,
05-Aug-2021 04:00,21.7,
05-Aug-2021 05:00,29.7,
05-Aug-2021 06:00,19.1,
05-Aug-2021 07:00,24.3,
05-Aug-2021 08:00,14.1,
05-Aug-2021 09:00,22.1,
05-Aug-2021 10:00,19.7,
05-Aug-2021 11:00,16.2,
05-Aug-2021 12:00,16.4,
05-Aug-2021 13:00,13.1,
05-Aug-2021 14:00,4,
05-Aug-2021 15:00,-4,
05-Aug-2021 16:00,-1.6,
05-Aug-2021 17:00,1.3,
05-Aug-2021 18:00,1,
05-Aug-2021 19:00,13.8,
05-Aug-2021 20:00,12.8,
05-Aug-2021 21:00,14.1,
05-Aug-2021 22:00,7.7,
05-Aug-2021 23:00,12,
06-Aug-2021 00:00,11.6,
06-Aug-2021 01:00,10.7,
06-Aug-2021 02:00,9.7,
06-Aug-2021 03:00,9.8,
06-Aug-2021 04:00,18.6,
06-Aug-2021 05:00,15.1,
06-Aug-2021 06:00,15.1,
06-Aug-2021 07:00,25.4,
06-Aug-2021 08:00,15.1,
06-Aug-2021 09:00,16.1,
06-Aug-2021 10:00,11.7,
06-Aug-2021 11:00,15.1,
06-Aug-2021 12:00,14.5,
06-Aug-2021 13:00,17.5,
06-Aug-2021 14:00,20.4,
06-Aug-2021 15:00,18.2,
06-Aug-2021 16:00,14.9,
06-Aug-2021 17:00,16.6,
06-Aug-2021 18:00,14.2,
06-Aug-2021 19:00,11,
06-Aug-2021 20:00,14.4,
06-Aug-2021 21:00,13.9,
06-Aug-2021 22:00,14.9,
06-Aug-2021 23:00,14.3,
07-Aug-2021 00:00,13,
07-Aug-2021 01:00,15.4,
07-Aug-2021 02:00,24.8,
07-Aug-2021 03:00,74.9,
07-Aug-2021 04:00,105.4,
07-Aug-2021 05:00,115,
07-Aug-2021 06:00,117.1,
07-Aug-2021 07:00,117.3,
07-Aug-2021 08:00,112.7,
07-Aug-2021 09:00,115.6,
07-Aug-2021 10:00,104.8,
07-Aug-2021 11:00,57.7,
07-Aug-2021 12:00,35.9,
07-Aug-2021 13:00,38.6,
07-Aug-2021 14:00,26.6,
07-Aug-2021 15:00,26.2,
07-Aug-2021 16:00,27.7,
07-Aug-2021 17:00,14.8,
07-Aug-2021 18:00,19.5,
07-Aug-2021 19:00,33.5,
07-Aug-2021 20:00,27.5,
07-Aug-2021 21:00,27.7,
07-Aug-2021 22:00,25.5,
07-Aug-2021 23:00,23.2,
08-Aug-2021 00:00,24.1,
08-Aug-2021 01:00,24.4,
08-Aug-2021 02:00,23.9,
08-Aug-2021 03:00,22.7,
08-Aug-2021 04:00,28.1,
08-Aug-2021 05:00,30.4,
08-Aug-2021 06:00,31.4,
08-Aug-2021 07:00,41.9,
08-Aug-2021 08:00,59.9,
08-Aug-2021 09:00,56.5,
08-Aug-2021 10:00,50.8,
08-Aug-2021 11:00,43.5,
08-Aug-2021 12:00,35.3,
08-Aug-2021 13:00,24.1,
08-Aug-2021 14:00,26.4,
08-Aug-2021 15:00,28.4,
08-Aug-2021 16:00,26.3,
08-Aug-2021 17:00,20.1,
08-Aug-2021 18:00,16.7,
08-Aug-2021 19:00,16.2,
08-Aug-2021 20:00,17.8,
08-Aug-2021 21:00,21.3,
08-Aug-2021 22:00,25.2,
08-Aug-2021 23:00,26,
09-Aug-2021 00:00,25,
09-Aug-2021 01:00,24,
09-Aug-2021 02:00,25.9,
09-Aug-2021 03:00,26.4,
09-Aug-2021 04:00,42.6,
09-Aug-2021 05:00,54.6,
09-Aug-2021 06:00,29.1,
09-Aug-2021 07:00,28.7,
09-Aug-2021 08:00,27.2,
09-Aug-2021 09:00,31.1,
09-Aug-2021 10:00,33,
09-Aug-2021 11:00,29.7,
09-Aug-2021 12:00,22.4,
09-Aug-2021 13:00,18.6,
09-Aug-2021 14:00,21.7,
09-Aug-2021 15:00,16.6,
09-Aug-2021 16:00,11.1,
09-Aug-2021 17:00,10.4,
09-Aug-2021 18:00,10.4,
09-Aug-2021 19:00,13.7,
09-Aug-2021 20:00,12.8,
09-Aug-2021 21:00,9.2,
09-Aug-2021 22:00,8.4,
09-Aug-2021 23:00,10.2,
10-Aug-2021 00:00,10.7,
10-Aug-2021 01:00,8.8,
10-Aug-2021 02:00,14.8,
10-Aug-2021 03:00,10.3,
10-Aug-2021 04:00,15.1,
10-Aug-2021 05:00,14,
10-Aug-2021 06:00,11.8,
10-Aug-2021 07:00,12.8,
10-Aug-2021 08:00,12.4,
10-Aug-2021 09:00,11.7,
10-Aug-2021 10:00,12.8,
10-Aug-2021 11:00,9.1,
10-Aug-2021 12:00,15.2,
10-Aug-2021 13:00,14.8,
10-Aug-2021 14:00,17.4,
10-Aug-2021 15:00,13.5,
10-Aug-2021 16:00,16.6,
10-Aug-2021 17:00,16.9,
10-Aug-2021 18:00,18.2,
10-Aug-2021 19:00,18.8,
10-Aug-2021 20:00,18,
10-Aug-2021 21:00,13.6,
10-Aug-2021 22:00,12.9,
10-Aug-2021 23:00,24.7,
11-Aug-2021 00:00,11.1,
11-Aug-2021 01:00,13.1,
11-Aug-2021 02:00,11.1,
11-Aug-2021 03:00,13.9,
11-Aug-2021 04:00,14.2,
11-Aug-2021 05:00,,AX
11-Aug-2021 06:00,,AX
11-Aug-2021 07:00,11.8,
11-Aug-2021 08:00,22.5,
11-Aug-2021 09:00,38.1,
11-Aug-2021 10:00,38.1,
11-Aug-2021 11:00,39.7,
11-Aug-2021 12:00,25.2,
11-Aug-2021 13:00,30.6,
11-Aug-2021 14:00,24.4,
11-Aug-2021 15:00,24.4,
11-Aug-2021 16:00,24.1,
11-Aug-2021 17:00,20.9,
11-Aug-2021 18:00,18.8,
11-Aug-2021 19:00,19.1,
11-Aug-2021 20:00,17.8,
11-Aug-2021 21:00,17,
11-Aug-2021 22:00,14.8,
11-Aug-2021 23:00,15.2,
12-Aug-2021 00:00,13.8,
12-Aug-2021 01:00,16.1,
12-Aug-2021 02:00,17.3,
12-Aug-2021 03:00,16.2,
12-Aug-2021 04:00,18.3,
12-Aug-2021 05:00,18.8,
12-Aug-2021 06:00,29.1,
12-Aug-2021 07:00,20.5,
12-Aug-2021 08:00,20.7,
12-Aug-2021 09:00,23.8,
12-Aug-2021 10:00,21.8,
12-Aug-2021 11:00,30.9,
12-Aug-2021 12:00,27.4,
12-Aug-2021 13:00,28.3,
12-Aug-2021 14:00,34.2,
12-Aug-2021 15:00,43.5,
12-Aug-2021 16:00,29.4,
12-Aug-2021 17:00,23,
12-Aug-2021 18:00,16.5,
12-Aug-2021 19:00,30.3,
12-Aug-2021 20:00,25.4,
12-Aug-2021 21:00,17.5,
12-Aug-2021 22:00,22.2,
12-Aug-2021 23:00,26.3,
13-Aug-2021 00:00,22,
13-Aug-2021 01:00,24.4,
13-Aug-2021 02:00,23,
13-Aug-2021 03:00,22.6,
13-Aug-2021 04:00,23.5,
13-Aug-2021 05:00,60.8,
13-Aug-2021 06:00,22,
13-Aug-2021 07:00,28.5,
13-Aug-2021 08:00,26.3,
13-Aug-2021 09:00,31.8,
13-Aug-2021 10:00,43.2,
13-Aug-2021 11:00,43.1,
13-Aug-2021 12:00,42.7,
13-Aug-2021 13:00,33.4,
13-Aug-2021 14:00,31.7,
13-Aug-2021 15:00,34.9,
13-Aug-2021 16:00,29.7,
13-Aug-2021 17:00,27.6,
13-Aug-2021 18:00,21.7,
13-Aug-2021 19:00,37.2,
13-Aug-2021 20:00,20,
13-Aug-2021 21:00,15.1,
13-Aug-2021 22:00,15.5,
13-Aug-2021 23:00,13.8,
14-Aug-2021 00:00,13.5,
14-Aug-2021 01:00,21.2,
14-Aug-2021 02:00,20.1,
14-Aug-2021 03:00,20.1,
14-Aug-2021 04:00,33.7,
14-Aug-2021 05:00,28.4,
14-Aug-2021 06:00,32.5,
14-Aug-2021 07:00,28.8,
14-Aug-2021 08:00,25,
14-Aug-2021 09:00,29.3,
14-Aug-2021 10:00,29.1,
14-Aug-2021 11:00,39.9,
14-Aug-2021 12:00,36.7,
14-Aug-2021 13:00,32,
14-Aug-2021 14:00,39.4,
14-Aug-2021 15:00,30,
14-Aug-2021 16:00,36.8,
14-Aug-2021 17:00,31.7,
14-Aug-2021 18:00,30,
14-Aug-2021 19:00,32.7,
14-Aug-2021 20:00,27.2,
14-Aug-2021 21:00,27,
14-Aug-2021 22:00,29.1,
14-Aug-2021 23:00,21.4,
15-Aug-2021 00:00,26.1,
15-Aug-2021 01:00,26,
15-Aug-2021 02:00,24.3,
15-Aug-2021 03:00,26.6,
15-Aug-2021 04:00,32.2,
15-Aug-2021 05:00,30.7,
15-Aug-2021 06:00,30.5,
15-Aug-2021 07:00,27.6,
15-Aug-2021 08:00,32.3,
15-Aug-2021 09:00,43.2,
15-Aug-2021 10:00,62.2,
15-Aug-2021 11:00,50.9,
15-Aug-2021 12:00,44.7,
15-Aug-2021 13:00,32.6,
15-Aug-2021 14:00,35.4,
15-Aug-2021 15:00,28.1,
15-Aug-2021 16:00,31.8,
15-Aug-2021 17:00,32.1,
15-Aug-2021 18:00,33.7,
15-Aug-2021 19:00,31.6,
15-Aug-2021 20:00,32.6,
15-Aug-2021 21:00,30.4,
15-Aug-2021 22:00,32.9,
15-Aug-2021 23:00,31.4,
16-Aug-2021 00:00,32.4,
16-Aug-2021 01:00,32.4,
16-Aug-2021 02:00,31.5,
16-Aug-2021 03:00,32.2,
16-Aug-2021 04:00,35,
16-Aug-2021 05:00,35.4,
16-Aug-2021 06:00,42,
16-Aug-2021 07:00,50.7,
16-Aug-2021 08:00,63.9,
16-Aug-2021 09:00,58.1,
16-Aug-2021 10:00,68.6,
16-Aug-2021 11:00,51.2,
16-Aug-2021 12:00,42.8,
16-Aug-2021 13:00,36.9,
16-Aug-2021 14:00,44.2,
16-Aug-2021 15:00,40.6,
16-Aug-2021 16:00,43.6,
16-Aug-2021 17:00,47.7,
16-Aug-2021 18:00,45.5,
16-Aug-2021 19:00,50.3,
16-Aug-2021 20:00,60.1,
16-Aug-2021 21:00,41.5,
16-Aug-2021 22:00,48.9,
16-Aug-2021 23:00,69.5,
17-Aug-2021 00:00,69.5,
17-Aug-2021 01:00,51.7,
17-Aug-2021 02:00,56.6,
17-Aug-2021 03:00,54.3,
17-Aug-2021 04:00,52.6,
17-Aug-2021 05:00,64.5,
17-Aug-2021 06:00,72.8,
17-Aug-2021 07:00,82.3,
17-Aug-2021 08:00,79.1,
17-Aug-2021 09:00,81.7,
17-Aug-2021 10:00,78.5,
17-Aug-2021 11:00,77.6,
17-Aug-2021 12:00,64.4,
17-Aug-2021 13:00,58.1,
17-Aug-2021 14:00,26.6,
17-Aug-2021 15:00,-1.4,
17-Aug-2021 16:00,35.9,
17-Aug-2021 17:00,131.7,
17-Aug-2021 18:00,227.3,
17-Aug-2021 19:00,100.3,
17-Aug-2021 20:00,84.9,
17-Aug-2021 21:00,94.3,
17-Aug-2021 22:00,67.6,
17-Aug-2021 23:00,60.3,
18-Aug-2021 00:00,74.1,
18-Aug-2021 01:00,41.9,
18-Aug-2021 02:00,31.1,
18-Aug-2021 03:00,33.3,
18-Aug-2021 04:00,35.5,
18-Aug-2021 05:00,56.3,
18-Aug-2021 06:00,54,
18-Aug-2021 07:00,48.6,
18-Aug-2021 08:00,46.7,
18-Aug-2021 09:00,39.4,
18-Aug-2021 10:00,24.3,
18-Aug-2021 11:00,41.2,
18-Aug-2021 12:00,28.2,
18-Aug-2021 13:00,36,
18-Aug-2021 14:00,5.4,
18-Aug-2021 15:00,36.9,
18-Aug-2021 16:00,46.5,
18-Aug-2021 17:00,52.4,
18-Aug-2021 18:00,46.2,
18-Aug-2021 19:00,61.7,
18-Aug-2021 20:00,68.2,
18-Aug-2021 21:00,58.4,
18-Aug-2021 22:00,102.3,
18-Aug-2021 23:00,137.7,
19-Aug-2021 00:00,114.8,
19-Aug-2021 01:00,89.7,
19-Aug-2021 02:00,63.4,
19-Aug-2021 03:00,54.8,
19-Aug-2021 04:00,45.1,
19-Aug-2021 05:00,40.4,
19-Aug-2021 06:00,39.2,
19-Aug-2021 07:00,41.4,
19-Aug-2021 08:00,43.1,
19-Aug-2021 09:00,37.4,
19-Aug-2021 10:00,43.5,
19-Aug-2021 11:00,50.8,
19-Aug-2021 12:00,60.6,
19-Aug-2021 13:00,58.3,
19-Aug-2021 14:00,82.9,
19-Aug-2021 15:00,93,
19-Aug-2021 16:00,99.8,
19-Aug-2021 17:00,91.4,
19-Aug-2021 18:00,95.8,
19-Aug-2021 19:00,85.4,
19-Aug-2021 20:00,90.5,
19-Aug-2021 21:00,95.2,
19-Aug-2021 22:00,92.2,
19-Aug-2021 23:00,89.4,
20-Aug-2021 00:00,83.7,
20-Aug-2021 01:00,82.6,
20-Aug-2021 02:00,25.8,
20-Aug-2021 03:00,21,
20-Aug-2021 04:00,22.9,
20-Aug-2021 05:00,23.3,
20-Aug-2021 06:00,26,
20-Aug-2021 07:00,23.8,
20-Aug-2021 08:00,24.3,
20-Aug-2021 09:00,22.9,
20-Aug-2021 10:00,32.6,
20-Aug-2021 11:00,47.3,
20-Aug-2021 12:00,55,
20-Aug-2021 13:00,50.4,
20-Aug-2021 14:00,45.6,
20-Aug-2021 15:00,33.9,
20-Aug-2021 16:00,39.6,
20-Aug-2021 17:00,49,
20-Aug-2021 18:00,48.7,
20-Aug-2021 19:00,47.8,
20-Aug-2021 20:00,42.8,
20-Aug-2021 21:00,46.8,
20-Aug-2021 22:00,57.9,
20-Aug-2021 23:00,58.6,
21-Aug-2021 00:00,62.4,
21-Aug-2021 01:00,65.4,
21-Aug-2021 02:00,64.9,
21-Aug-2021 03:00,52.7,
21-Aug-2021 04:00,58.4,
21-Aug-2021 05:00,60.4,
21-Aug-2021 06:00,72.6,
21-Aug-2021 07:00,100.4,
21-Aug-2021 08:00,109.5,
21-Aug-2021 09:00,165.7,
21-Aug-2021 10:00,173.7,
21-Aug-2021 11:00,66.3,
21-Aug-2021 12:00,33.2,
21-Aug-2021 13:00,49.3,
21-Aug-2021 14:00,56.4,
21-Aug-2021 15:00,187.1,
21-Aug-2021 16:00,343.9,
21-Aug-2021 17:00,313.1,
21-Aug-2021 18:00,318.7,
21-Aug-2021 19:00,272.4,
21-Aug-2021 20:00,269.4,
21-Aug-2021 21:00,262.9,
21-Aug-2021 22:00,235.2,
21-Aug-2021 23:00,163.3,
22-Aug-2021 00:00,105.3,
22-Aug-2021 01:00,113.5,
22-Aug-2021 02:00,108.7,
22-Aug-2021 03:00,111.8,
22-Aug-2021 04:00,112.4,
22-Aug-2021 05:00,115.9,
22-Aug-2021 06:00,127.2,
22-Aug-2021 07:00,114.5,
22-Aug-2021 08:00,116.9,
22-Aug-2021 09:00,139.6,
22-Aug-2021 10:00,104.6,
22-Aug-2021 11:00,65.7,
22-Aug-2021 12:00,45.2,
22-Aug-2021 13:00,21.9,
22-Aug-2021 14:00,32.7,
22-Aug-2021 15:00,40.6,
22-Aug-2021 16:00,17.1,
22-Aug-2021 17:00,-3.3,
22-Aug-2021 18:00,-0.4,
22-Aug-2021 19:00,14.5,
22-Aug-2021 20:00,15.1,
22-Aug-2021 21:00,20.1,
22-Aug-2021 22:00,30.4,
22-Aug-2021 23:00,25.8,
23-Aug-2021 00:00,43.1,
23-Aug-2021 01:00,49.3,
23-Aug-2021 02:00,56.5,
23-Aug-2021 03:00,73.6,
23-Aug-2021 04:00,45.8,
23-Aug-2021 05:00,93,
23-Aug-2021 06:00,59.5,
23-Aug-2021 07:00,62.7,
23-Aug-2021 08:00,52.1,
23-Aug-2021 09:00,44.3,
23-Aug-2021 10:00,46.6,
23-Aug-2021 11:00,35.6,
23-Aug-2021 12:00,28,
23-Aug-2021 13:00,11.2,
23-Aug-2021 14:00,20,
23-Aug-2021 15:00,30.5,
23-Aug-2021 16:00,33.6,
23-Aug-2021 17:00,29.3,
23-Aug-2021 18:00,41.7,
23-Aug-2021 19:00,38.8,
23-Aug-2021 20:00,53,
23-Aug-2021 21:00,69,
23-Aug-2021 22:00,74,
23-Aug-2021 23:00,71.3,
24-Aug-2021 00:00,79.8,
24-Aug-2021 01:00,70.6,
24-Aug-2021 02:00,57.2,
24-Aug-2021 03:00,57.8,
24-Aug-2021 04:00,57,
24-Aug-2021 05:00,58.1,
24-Aug-2021 06:00,66.8,
24-Aug-2021 07:00,61,
24-Aug-2021 08:00,77.1,
24-Aug-2021 09:00,65.8,
24-Aug-2021 10:00,80.3,
24-Aug-2021 11:00,31.9,
24-Aug-2021 12:00,24.7,
24-Aug-2021 13:00,24.7,
24-Aug-2021 14:00,43.9,
24-Aug-2021 15:00,27.4,
24-Aug-2021 16:00,26.4,
24-Aug-2021 17:00,83.4,
24-Aug-2021 18:00,189.8,
24-Aug-2021 19:00,149.2,
24-Aug-2021 20:00,101.2,
24-Aug-2021 21:00,107.7,
24-Aug-2021 22:00,86.5,
24-Aug-2021 23:00,71.1,
25-Aug-2021 00:00,92,
25-Aug-2021 01:00,75.9,
25-Aug-2021 02:00,74.1,
25-Aug-2021 03:00,57,
25-Aug-2021 04:00,57.8,
25-Aug-2021 05:00,,BA
25-Aug-2021 06:00,,BA
25-Aug-2021 07:00,,BA
25-Aug-2021 08:00,87.8,
25-Aug-2021 09:00,91.9,
25-Aug-2021 10:00,77.9,
25-Aug-2021 11:00,49.9,
25-Aug-2021 12:00,71.8,
25-Aug-2021 13:00,145.6,
25-Aug-2021 14:00,166.3,
25-Aug-2021 15:00,172.9,
25-Aug-2021 16:00,217.6,
25-Aug-2021 17:00,60.1,
25-Aug-2021 18:00,7.3,
25-Aug-2021 19:00,13.2,
25-Aug-2021 20:00,10.6,
25-Aug-2021 21:00,12.7,
25-Aug-2021 22:00,14.5,
25-Aug-2021 23:00,15.3,
26-Aug-2021 00:00,14.9,
26-Aug-2021 01:00,11.3,
26-Aug-2021 02:00,15.9,
26-Aug-2021 03:00,18.9,
26-Aug-2021 04:00,19.9,
26-Aug-2021 05:00,22.4,
26-Aug-2021 06:00,25,
26-Aug-2021 07:00,34.1,
26-Aug-2021 08:00,44.2,
26-Aug-2021 09:00,69.2,
26-Aug-2021 10:00,89.7,
26-Aug-2021 11:00,48.6,
26-Aug-2021 12:00,50.1,
26-Aug-2021 13:00,42.6,
26-Aug-2021 14:00,45.6,
26-Aug-2021 15:00,55.6,
26-Aug-2021 16:00,59.4,
26-Aug-2021 17:00,40.8,
26-Aug-2021 18:00,39.5,
26-Aug-2021 19:00,42.6,
26-Aug-2021 20:00,36.7,
26-Aug-2021 21:00,38.1,
26-Aug-2021 22:00,36.1,
26-Aug-2021 23:00,40.6,
27-Aug-2021 00:00,41.3,
27-Aug-2021 01:00,40.8,
27-Aug-2021 02:00,47,
27-Aug-2021 03:00,41.5,
27-Aug-2021 04:00,49.3,
27-Aug-2021 05:00,43.2,
27-Aug-2021 06:00,38.1,
27-Aug-2021 07:00,46.1,
27-Aug-2021 08:00,53,
27-Aug-2021 09:00,45.4,
27-Aug-2021 10:00,45.5,
27-Aug-2021 11:00,54.8,
27-Aug-2021 12:00,50.9,
27-Aug-2021 13:00,57.8,
27-Aug-2021 14:00,54.9,
27-Aug-2021 15:00,29,
27-Aug-2021 16:00,34.2,
27-Aug-2021 17:00,74.1,
27-Aug-2021 18:00,101.6,
27-Aug-2021 19:00,83.9,
27-Aug-2021 20:00,69.1,
27-Aug-2021 21:00,65.3,
27-Aug-2021 22:00,59.5,
27-Aug-2021 23:00,59.4,
28-Aug-2021 00:00,60.6,
28-Aug-2021 01:00,58.9,
28-Aug-2021 02:00,53.4,
28-Aug-2021 03:00,50.8,
28-Aug-2021 04:00,59.6,
28-Aug-2021 05:00,54.2,
28-Aug-2021 06:00,49.2,
28-Aug-2021 07:00,49.4,
28-Aug-2021 08:00,52.9,
28-Aug-2021 09:00,57.8,
28-Aug-2021 10:00,48.1,
28-Aug-2021 11:00,28.7,
28-Aug-2021 12:00,34,
28-Aug-2021 13:00,32.7,
28-Aug-2021 14:00,27.7,
28-Aug-2021 15:00,11,
28-Aug-2021 16:00,13.7,
28-Aug-2021 17:00,8,
28-Aug-2021 18:00,4.9,
28-Aug-2021 19:00,15.9,
28-Aug-2021 20:00,16,
28-Aug-2021 21:00,26.8,
28-Aug-2021 22:00,35.6,
28-Aug-2021 23:00,35.1,
29-Aug-2021 00:00,36.3,
29-Aug-2021 01:00,32.8,
29-Aug-2021 02:00,33.2,
29-Aug-2021 03:00,34,
29-Aug-2021 04:00,38.6,
29-Aug-2021 05:00,37.6,
29-Aug-2021 06:00,38,
29-Aug-2021 07:00,34.6,
29-Aug-2021 08:00,35.8,
29-Aug-2021 09:00,34,
29-Aug-2021 10:00,44.6,
29-Aug-2021 11:00,37.9,
29-Aug-2021 12:00,30.8,
29-Aug-2021 13:00,25.3,
29-Aug-2021 14:00,31.7,
29-Aug-2021 15:00,39,
29-Aug-2021 16:00,29.9,
29-Aug-2021 17:00,28.6,
29-Aug-2021 18:00,25.4,
29-Aug-2021 19:00,16.2,
29-Aug-2021 20:00,9.1,
29-Aug-2021 21:00,9.1,
29-Aug-2021 22:00,8,
29-Aug-2021 23:00,15,
30-Aug-2021 00:00,20.5,
30-Aug-2021 01:00,22.4,
30-Aug-2021 02:00,37.7,
30-Aug-2021 03:00,38,
30-Aug-2021 04:00,38.9,
30-Aug-2021 05:00,40.8,
30-Aug-2021 06:00,35.1,
30-Aug-2021 07:00,49.3,
30-Aug-2021 08:00,59.7,
30-Aug-2021 09:00,48.4,
30-Aug-2021 10:00,40.7,
30-Aug-2021 11:00,42.1,
30-Aug-2021 12:00,33.6,
30-Aug-2021 13:00,29.5,
30-Aug-2021 14:00,28.9,
30-Aug-2021 15:00,35.3,
30-Aug-2021 16:00,26,
30-Aug-2021 17:00,26.9,
30-Aug-2021 18:00,20.7,
30-Aug-2021 19:00,12.2,
30-Aug-2021 20:00,17.9,
30-Aug-2021 21:00,39.2,
30-Aug-2021 22:00,49.8,
30-Aug-2021 23:00,45.3,
31-Aug-2021 00:00,39.1,
31-Aug-2021 01:00,37,
31-Aug-2021 02:00,35.9,
31-Aug-2021 03:00,32.9,
31-Aug-2021 04:00,36.7,
31-Aug-2021 05:00,48.1,
31-Aug-2021 06:00,39.2,
31-Aug-2021 07:00,41.2,
31-Aug-2021 08:00,41.3,
31-Aug-2021 09:00,48.2,
31-Aug-2021 10:00,55.2,
31-Aug-2021 11:00,45,
31-Aug-2021 12:00,46.8,
31-Aug-2021 13:00,45.5,
31-Aug-2021 14:00,45.5,
31-Aug-2021 15:00,49.4,
31-Aug-2021 16:00,58.7,
31-Aug-2021 17:00,41.1,
31-Aug-2021 18:00,46.9,
31-Aug-2021 19:00,51.6,
31-Aug-2021 20:00,49,
31-Aug-2021 21:00,43.6,
31-Aug-2021 22:00,40.8,
31-Aug-2021 23:00,40.8,
